Location: Unspecified
(0.0000°N, 0.0000°E)
Time: 13:54:25
(UTC+00:00)

deb Midas V - Pass Details

Date: 20 April 2026
Orbit: 2771 x 3389 km, 86.6° (Epoch: 16 May)

Event Time Altitude Azimuth Distance (km) Brightness Sun altitude
Rises 20:28:35 0° 325° (NW) 7,326 ? -36.5°
Reaches altitude 10° 20:36:04 10° 305° (NW) 6,220 ? -38.3°
Maximum altitude 20:44:10 15° 275° (W) 5,663 ? -40.3°
Drops below altitude 10° 20:52:07 10° 245° (WSW) 5,981 ? -42.2°
Sets 20:59:21 0° 223° (SW) 6,884 ? -43.9°
